Window Rock, AZ

9:26 AM MST on November 20, 2017 (GMT -0700)
Window Rock

Weather History for KRQE - July, 2013

Change the Weather History Date:

Monday, July 22, 2013

  Actual Average Record
Temperature  
Mean Temperature 68 °F -  
Max Temperature 82 °F 84 °F 93 °F (1964)
Min Temperature 55 °F 55 °F 46 °F (1944)
Cooling Degree Days 4    
Growing Degree Days 18 (Base 50)    
Moisture  
Dew Point 51 °F    
Average Humidity 57    
Maximum Humidity 93    
Minimum Humidity 29    
Precipitation  
Precipitation 0.00 in - - ()
Sea Level Pressure  
Sea Level Pressure 29.90 in    
Wind  
Wind Speed 3 mph (West)    
Max Wind Speed 16 mph    
Max Gust Speed 23 mph    
Visibility 10 miles    
Events Rain    
Averages and records for this station are not official NWS values.
T = Trace of Precipitation, MM = Missing Value Source: NWS Daily Summary

Daily Weather History Graph

Daily Weather History Graph

Search for Another Location

Airport or City:

Trip Planner

Search our weather history database for the weather conditions in past years. The results will help you decide how hot, cold, wet, or windy it might be!

Date:

Astronomy

Jul. 22, 2013 Rise Set
Actual Time 6:17 AM MDT 8:28 PM MDT
Civil Twilight 5:48 AM MDT 8:56 PM MDT
Nautical Twilight 5:13 AM MDT 9:31 PM MDT
Astronomical Twilight 4:34 AM MDT 10:09 PM MDT
Moon 8:20 PM MDT (7/22) 6:15 AM MDT (7/22)
Length of Visible Light 15h 08m
Length of Day
14h 10m
Full, 100% of the Moon is Illuminated
Jul 22
Full
Jul 22
Full
Jul 29
Last Quarter
Aug 6
New
Aug 14
First Quarter

Hourly Weather History & Observations

Time (MDT) Temp. Dew Point Humidity Pressure Visibility Wind Dir Wind Speed Gust Speed Precip Events Conditions
12:53 AM 62.1 °F 54.0 °F 75% 29.85 in 10.0 mi Calm Calm - N/A   Clear
1:53 AM 62.1 °F 53.1 °F 72% 29.84 in 10.0 mi NE 5.8 mph - N/A   Clear
2:53 AM 62.1 °F 53.1 °F 72% 29.84 in 10.0 mi Calm Calm - N/A   Clear
3:53 AM 61.0 °F 54.0 °F 78% 29.86 in 10.0 mi Calm Calm - N/A   Clear
4:53 AM 57.0 °F 55.0 °F 93% 29.91 in 10.0 mi Calm Calm - N/A   Clear
5:53 AM 55.0 °F 53.1 °F 93% 29.93 in 10.0 mi SSW 3.5 mph - N/A   Clear
6:53 AM 57.0 °F 54.0 °F 89% 29.94 in 10.0 mi Calm Calm - N/A   Scattered Clouds
7:53 AM 59.0 °F 55.9 °F 90% 29.96 in 10.0 mi Calm Calm - N/A   Scattered Clouds
8:53 AM 66.0 °F 53.1 °F 63% 29.96 in 10.0 mi Calm Calm - N/A   Clear
9:53 AM 72.0 °F 48.0 °F 43% 29.94 in 10.0 mi Calm Calm - N/A   Clear
10:53 AM 75.0 °F 48.0 °F 38% 29.92 in 10.0 mi Calm Calm - N/A   Clear
11:53 AM 78.1 °F 46.9 °F 33% 29.89 in 10.0 mi WNW 5.8 mph - N/A   Clear
12:53 PM 81.0 °F 48.0 °F 31% 29.86 in 10.0 mi Variable 5.8 mph - N/A   Clear
1:53 PM 80.1 °F 46.9 °F 31% 29.85 in 10.0 mi SW 8.1 mph 19.6 mph N/A   Mostly Cloudy
2:53 PM 82.0 °F 46.9 °F 29% 29.82 in 10.0 mi NNW 8.1 mph 16.1 mph N/A   Scattered Clouds
3:53 PM 81.0 °F 46.9 °F 30% 29.81 in 10.0 mi North 6.9 mph - N/A   Partly Cloudy
4:53 PM 80.1 °F 46.9 °F 31% 29.83 in 10.0 mi West 3.5 mph - N/A   Clear
5:53 PM 77.0 °F 51.1 °F 40% 29.85 in 10.0 mi SW 11.5 mph 17.3 mph N/A   Clear
6:16 PM 71.6 °F 51.8 °F 50% 30.19 in 10.0 mi South 16.1 mph - 0.00 in Rain Light Rain
6:53 PM 68.0 °F 52.0 °F 56% 29.91 in 10.0 mi South 16.1 mph 23.0 mph 0.00 in Rain Light Rain
7:53 PM 66.0 °F 52.0 °F 60% 29.91 in 10.0 mi WSW 5.8 mph - 0.00 in   Partly Cloudy
8:53 PM 66.0 °F 51.1 °F 59% 29.90 in 10.0 mi West 3.5 mph - N/A   Partly Cloudy
9:53 PM 66.9 °F 51.1 °F 57% 29.89 in 10.0 mi Calm Calm - 0.00 in   Clear
10:53 PM 64.9 °F 48.9 °F 56% 29.91 in 10.0 mi WNW 4.6 mph - N/A   Mostly Cloudy
11:53 PM 64.0 °F 50.0 °F 60% 29.88 in 10.0 mi WSW 8.1 mph - 0.00 in   Scattered Clouds